Nome, AK

8:24 PM AKST on February 13, 2016 (GMT -0900)
Nome

Weather History for PAOM - June, 2014

Change the Weather History Date:

Tuesday, June 3, 2014

  Actual Average Record
Temperature  
Mean Temperature 39 °F 44 °F  
Max Temperature 41 °F 51 °F 70 °F (1993)
Min Temperature 37 °F 37 °F 24 °F (2006)
Degree Days  
Heating Degree Days 26 21  
Month to date heating degree days 79 64  
Since 1 June heating degree days 79 64  
Since 1 July heating degree days 11865 13252  
Cooling Degree Days 0    
Month to date cooling degree days 0  
Year to date cooling degree days 0  
Since 1 June cooling degree days 0  
Moisture  
Dew Point 39 °F    
Average Humidity 0    
Maximum Humidity 0    
Minimum Humidity 0    
Precipitation  
Precipitation 0.02 in 0.03 in 0.54 in (1918)
Month to date precipitation 0.02 0.09  
Year to date precipitation 4.49 4.23  
Snow  
Snow 0.00 in 0.10 in 0.70 in (1977)
Month to date snowfall 0.0 0.1  
Since 1 June snowfall 0.0 0.1  
Since 1 July snowfall 72.3 75.5  
Snow Depth 0.00 in    
Sea Level Pressure  
Sea Level Pressure 30.27 in    
Wind  
Wind Speed 8 mph (South)    
Max Wind Speed 13 mph    
Max Gust Speed 15 mph    
Visibility 6 miles    
Events Fog , Rain    
T = Trace of Precipitation, MM = Missing Value Source: NWS Daily Summary

Daily Weather History Graph

Daily Weather History Graph

Search for Another Location

Airport or City:

Trip Planner

Search our weather history database for the weather conditions in past years. The results will help you decide how hot, cold, wet, or windy it might be!

Date:

Astronomy

Jun. 03, 2014 Rise Set
Actual Time 4:44 AM AKDT 1:18 AM AKDT
Civil Twilight Sun does not rise Sun does not rise
Nautical Twilight Sun does not rise Sun does not rise
Astronomical Twilight Sun does not rise Sun does not rise
Moon 12:14 PM AKDT (6/3) 3:01 AM AKDT (6/3)
Length of Visible Light 24h 00m
Length of Day
20h 34m
Waxing Crescent, 31% of the Moon is Illuminated
Jun 3
Waxing Crescent
Jun 5
First Quarter
Jun 12
Full
Jun 19
Last Quarter
Jun 27
New

Hourly Weather History & Observations

Time (AKDT) Temp. Windchill Dew Point Humidity Pressure Visibility Wind Dir Wind Speed Gust Speed Precip Events Conditions
12:53 AM 41.0 °F 34.7 °F 39.0 °F 93% 30.29 in 10.0 mi ESE 10.4 mph - N/A   Overcast
1:53 AM 41.0 °F 34.7 °F 39.9 °F 96% 30.29 in 10.0 mi ESE 10.4 mph - N/A   Overcast
2:40 AM 41.0 °F 34.7 °F 39.9 °F 96% 30.28 in 10.0 mi ESE 10.4 mph - N/A   Overcast
2:53 AM 41.0 °F 35.2 °F 39.9 °F 96% 30.29 in 10.0 mi ESE 9.2 mph - N/A   Overcast
3:30 AM 41.0 °F 34.7 °F 39.9 °F 96% 30.28 in 5.0 mi ESE 10.4 mph - 0.00 in Rain Light Rain
3:53 AM 41.0 °F 35.2 °F 39.9 °F 96% 30.28 in 10.0 mi ESE 9.2 mph - 0.00 in   Overcast
4:00 AM 41.0 °F 35.2 °F 39.9 °F 96% 30.28 in 8.0 mi ESE 9.2 mph - N/A   Overcast
4:22 AM 41.0 °F 34.3 °F 41.0 °F 100% 30.27 in 9.0 mi ESE 11.5 mph - N/A   Overcast
4:49 AM 41.0 °F 34.7 °F 41.0 °F 100% 30.26 in 5.0 mi SE 10.4 mph - N/A   Overcast
4:53 AM 41.0 °F 34.7 °F 41.0 °F 100% 30.27 in 4.0 mi SE 10.4 mph - N/A   Overcast
5:53 AM 41.0 °F 35.2 °F 41.0 °F 100% 30.27 in 3.0 mi SE 9.2 mph - N/A   Overcast
6:11 AM 41.0 °F 35.2 °F 41.0 °F 100% 30.27 in 1.8 mi SE 9.2 mph - 0.00 in   Light Drizzle
6:53 AM 41.0 °F 35.8 °F 41.0 °F 100% 30.27 in 1.2 mi SE 8.1 mph - 0.01 in   Light Drizzle
7:08 AM 41.0 °F 35.2 °F 41.0 °F 100% 30.27 in 1.8 mi SE 9.2 mph - 0.00 in   Light Drizzle
7:18 AM 41.0 °F 35.8 °F 41.0 °F 100% 30.27 in 2.5 mi SE 8.1 mph - 0.00 in   Light Drizzle
7:46 AM 41.0 °F 36.4 °F 41.0 °F 100% 30.26 in 1.2 mi SE 6.9 mph - 0.00 in   Light Drizzle
7:53 AM 41.0 °F 35.8 °F 41.0 °F 100% 30.26 in 0.8 mi SE 8.1 mph - 0.00 in   Light Drizzle
8:23 AM 41.0 °F 37.1 °F 41.0 °F 100% 30.26 in 1.2 mi SE 5.8 mph - 0.01 in   Light Drizzle
8:53 AM 39.9 °F 35.1 °F 39.9 °F 100% 30.26 in 1.5 mi SE 6.9 mph - 0.01 in   Overcast
9:12 AM 39.9 °F 34.5 °F 39.9 °F 100% 30.26 in 0.8 mi SSE 8.1 mph - N/A   Overcast
9:24 AM 39.9 °F 35.1 °F 39.9 °F 100% 30.26 in 0.5 mi SE 6.9 mph - N/A Fog Fog
9:53 AM 39.9 °F 35.8 °F 39.9 °F 100% 30.27 in 0.5 mi SSE 5.8 mph - N/A Fog Fog
10:31 AM 39.0 °F 34.8 °F 39.0 °F 100% 30.27 in 1.0 mi South 5.8 mph - 0.00 in   Light Drizzle
10:53 AM 39.0 °F 34.8 °F 39.0 °F 100% 30.28 in 1.2 mi SSW 5.8 mph - 0.00 in   Light Drizzle
11:53 AM 37.9 °F 34.4 °F 37.9 °F 100% 30.27 in 1.0 mi South 4.6 mph - 0.00 in   Light Drizzle
12:02 PM 37.9 °F 34.4 °F 37.9 °F 100% 30.27 in 2.0 mi SSW 4.6 mph - 0.00 in   Light Drizzle
12:16 PM 37.9 °F 33.5 °F 37.9 °F 100% 30.27 in 1.5 mi South 5.8 mph - 0.00 in   Overcast
12:21 PM 37.9 °F 33.5 °F 37.9 °F 100% 30.27 in 0.8 mi SSW 5.8 mph - 0.00 in Fog Fog
12:26 PM 37.9 °F 33.5 °F 37.9 °F 100% 30.27 in 0.5 mi SSW 5.8 mph - 0.00 in Fog Fog
12:53 PM 37.9 °F 34.4 °F 37.9 °F 100% 30.27 in 0.5 mi South 4.6 mph - 0.00 in Fog Fog
1:18 PM 37.9 °F 32.7 °F 37.9 °F 100% 30.27 in 1.0 mi SSW 6.9 mph - N/A   Overcast
1:34 PM 37.9 °F 33.5 °F 37.9 °F 100% 30.27 in 5.0 mi SSW 5.8 mph - N/A   Overcast
1:53 PM 37.9 °F 34.4 °F 37.9 °F 100% 30.27 in 5.0 mi SSW 4.6 mph - N/A   Overcast
2:53 PM 39.0 °F 33.4 °F 37.9 °F 96% 30.27 in 10.0 mi SSW 8.1 mph - N/A   Overcast
3:27 PM 39.0 °F 33.4 °F 37.9 °F 96% 30.26 in 10.0 mi SW 8.1 mph - N/A   Overcast
3:53 PM 39.0 °F 34.0 °F 37.9 °F 96% 30.27 in 10.0 mi SSW 6.9 mph - N/A   Overcast
4:53 PM 39.0 °F 32.8 °F 37.9 °F 96% 30.27 in 10.0 mi SW 9.2 mph - N/A   Overcast
5:53 PM 39.9 °F 33.9 °F 37.9 °F 93% 30.27 in 10.0 mi SW 9.2 mph - N/A   Overcast
6:20 PM 39.0 °F 32.8 °F 37.9 °F 96% 30.26 in 9.0 mi SW 9.2 mph - N/A   Overcast
6:53 PM 39.0 °F 33.4 °F 37.9 °F 96% 30.26 in 10.0 mi WSW 8.1 mph - N/A   Overcast
7:43 PM 39.0 °F 31.4 °F 37.0 °F 93% 30.25 in 10.0 mi SW 12.7 mph - N/A   Overcast
7:53 PM 39.0 °F 31.8 °F 37.0 °F 93% 30.25 in 10.0 mi WSW 11.5 mph - N/A   Overcast
8:50 PM 39.2 °F 32.0 °F 35.6 °F 87% 30.24 in 10.0 mi WSW 11.5 mph - N/A   Overcast
8:53 PM 39.0 °F 32.3 °F 36.0 °F 89% 30.25 in 10.0 mi WSW 10.4 mph - N/A   Overcast
9:04 PM 39.0 °F 32.3 °F 36.0 °F 89% 30.25 in 10.0 mi WSW 10.4 mph - N/A   Overcast
9:53 PM 37.4 °F 30.8 °F 35.6 °F 93% 30.25 in 10.0 mi West 9.2 mph - N/A   Overcast
10:49 PM 37.4 °F 31.4 °F 35.6 °F 93% 30.24 in 10.0 mi WSW 8.1 mph - N/A   Overcast
10:53 PM 37.0 °F 31.0 °F 36.0 °F 96% 30.24 in 10.0 mi WSW 8.1 mph - N/A   Overcast
11:53 PM 37.0 °F 31.6 °F 36.0 °F 96% 30.25 in 10.0 mi WSW 6.9 mph - N/A   Overcast